[Date Prev][Date Next][Thread Prev][Thread Next] - [Date Index][Thread Index][Author Index]
2 Line ISS Keps 4-4
- Subject: [sarex] 2 Line ISS Keps 4-4
- From: "Dave Larsen PhD" <doc@xxxxxxxxxxx>
- Date: Thu, 4 Apr 2002 02:25:56 -0800
ISS
1 25544U 98067A 02094.21025463 .00051356 00000-0 63417-3 0 2603
2 25544 51.6379 64.6575 0003513 355.6795 203.8681 15.59625466192490
----
Via the sarex mailing list at AMSAT.ORG courtesy of AMSAT-NA.
To unsubscribe, send "unsubscribe sarex" to Majordomo@amsat.org
AMSAT Home